NKS42 KLGA-KDTW

Flight info

Callsign NKS42
Flight time N/A
Altitude 36000
Route GAYEL J95 CFB TRAAD JACCI FERRL2
Aircraft A320/M-SDE3FGHIRWY/LB1

Departure

Time 2026-05-05 13:52
Airport LaGuardia Airport (KLGA)

Arrival

Time N/A
Airport Detroit Metropolitan Wayne County Airport (KDTW)
Time Latitude Longitude Altitude Speed Heading
2026-05-05 13:00 40.77439 -73.86846 20 ft 0 kts 264°
2026-05-05 13:42 40.77440 -73.86826 19 ft 4 kts 264°
2026-05-05 13:42 40.77444 -73.86794 19 ft 3 kts 271°
2026-05-05 13:42 40.77442 -73.86767 19 ft 4 kts 296°
2026-05-05 13:43 40.77424 -73.86743 22 ft 4 kts 323°
2026-05-05 13:43 40.77416 -73.86734 20 ft 0 kts 314°
2026-05-05 13:46 40.77417 -73.86735 22 ft 1 kts 314°
2026-05-05 13:46 40.77424 -73.86739 23 ft 1 kts 355°
2026-05-05 13:46 40.77446 -73.86726 18 ft 6 kts 21°
2026-05-05 13:46 40.77508 -73.86738 12 ft 12 kts 315°
2026-05-05 13:47 40.77560 -73.86818 13 ft 11 kts 302°
2026-05-05 13:47 40.77600 -73.86906 13 ft 12 kts 302°
2026-05-05 13:47 40.77644 -73.86996 14 ft 12 kts 303°
2026-05-05 13:47 40.77686 -73.87083 15 ft 11 kts 301°
2026-05-05 13:48 40.77729 -73.87173 15 ft 12 kts 302°
2026-05-05 13:48 40.77777 -73.87262 14 ft 13 kts 328°
2026-05-05 13:48 40.77855 -73.87315 14 ft 13 kts 318°
2026-05-05 13:48 40.77907 -73.87413 15 ft 13 kts 300°
2026-05-05 13:49 40.77956 -73.87521 16 ft 14 kts 303°
2026-05-05 13:49 40.78013 -73.87636 15 ft 16 kts 303°
2026-05-05 13:49 40.78076 -73.87764 17 ft 17 kts 303°
2026-05-05 13:49 40.78139 -73.87858 16 ft 1 kts 346°
2026-05-05 13:50 40.78146 -73.87860 14 ft 2 kts 346°
2026-05-05 13:50 40.78167 -73.87866 16 ft 4 kts 346°
2026-05-05 13:50 40.78197 -73.87876 17 ft 5 kts 346°
2026-05-05 13:50 40.78225 -73.87884 18 ft 2 kts 353°
2026-05-05 13:51 40.78229 -73.87873 18 ft 2 kts 67°
2026-05-05 13:51 40.78221 -73.87835 18 ft 7 kts 113°
2026-05-05 13:51 40.78137 -73.87663 13 ft 55 kts 122°
2026-05-05 13:51 40.77805 -73.86975 15 ft 118 kts 122°
2026-05-05 13:52 40.77283 -73.85879 55 ft 159 kts 121°
2026-05-05 13:52 40.76690 -73.84697 662 ft 151 kts 136°
2026-05-05 13:52 40.75884 -73.83869 1226 ft 145 kts 166°
2026-05-05 13:52 40.74965 -73.83785 1649 ft 129 kts 203°
2026-05-05 13:53 40.74005 -73.83871 1888 ft 156 kts 180°
2026-05-05 13:53 40.72862 -73.83515 2085 ft 181 kts 173°
2026-05-05 13:53 40.71570 -73.83312 2288 ft 192 kts 197°
2026-05-05 13:53 40.70390 -73.84063 2592 ft 193 kts 226°
2026-05-05 13:54 40.69420 -73.85408 2934 ft 211 kts 231°
2026-05-05 13:54 40.68441 -73.86871 3760 ft 213 kts 231°
2026-05-05 13:54 40.67581 -73.88453 4598 ft 214 kts 249°
2026-05-05 13:54 40.67456 -73.90399 5257 ft 230 kts 279°
2026-05-05 13:55 40.68171 -73.92428 5686 ft 256 kts 295°
2026-05-05 13:55 40.69100 -73.94486 6415 ft 265 kts 296°
2026-05-05 13:55 40.70233 -73.96444 7187 ft 276 kts 311°
2026-05-05 13:55 40.71862 -73.97866 7991 ft 289 kts 330°
2026-05-05 13:56 40.73746 -73.98865 8800 ft 293 kts 332°
2026-05-05 13:56 40.75650 -73.99881 9599 ft 296 kts 330°
2026-05-05 13:56 40.77567 -74.00919 10341 ft 302 kts 330°
2026-05-05 13:56 40.79579 -74.02027 10542 ft 324 kts 330°
2026-05-05 13:57 40.81718 -74.03221 10848 ft 341 kts 331°
2026-05-05 13:57 40.83922 -74.04439 11478 ft 345 kts 331°
2026-05-05 13:57 40.86152 -74.05655 12195 ft 347 kts 331°
2026-05-05 13:57 40.88391 -74.06873 12947 ft 349 kts 331°
2026-05-05 13:58 40.90644 -74.08100 13694 ft 349 kts 331°
2026-05-05 13:58 40.92894 -74.09325 14328 ft 351 kts 331°
2026-05-05 13:58 40.95162 -74.10561 14908 ft 354 kts 331°
2026-05-05 13:58 40.97450 -74.11811 15472 ft 357 kts 331°
2026-05-05 13:59 41.02072 -74.14354 16600 ft 363 kts 332°
2026-05-05 13:59 41.04416 -74.15647 17158 ft 366 kts 332°
2026-05-05 14:00 41.09156 -74.18256 18290 ft 372 kts 332°
2026-05-05 14:00 41.10743 -74.19128 18616 ft 374 kts 332°
2026-05-05 14:00 41.13985 -74.20916 19240 ft 380 kts 332°
2026-05-05 14:00 41.16435 -74.22270 19754 ft 382 kts 332°
2026-05-05 14:01 41.18899 -74.23632 20271 ft 385 kts 332°
2026-05-05 14:01 41.21377 -74.25001 20759 ft 387 kts 332°
2026-05-05 14:01 41.23870 -74.26380 21243 ft 389 kts 332°
2026-05-05 14:01 41.26378 -74.27769 21719 ft 392 kts 332°
2026-05-05 14:02 41.28901 -74.29168 22179 ft 394 kts 332°
2026-05-05 14:02 41.31448 -74.30580 22649 ft 397 kts 332°
2026-05-05 14:02 41.34005 -74.31998 23083 ft 400 kts 333°
2026-05-05 14:02 41.36585 -74.33453 23471 ft 403 kts 330°
2026-05-05 14:03 41.38991 -74.35328 23829 ft 401 kts 320°
2026-05-05 14:03 41.41086 -74.37765 24187 ft 398 kts 309°
2026-05-05 14:03 41.42798 -74.40654 24547 ft 396 kts 299°
2026-05-05 14:03 41.44191 -74.43826 24893 ft 398 kts 296°
2026-05-05 14:04 41.45557 -74.46993 25226 ft 401 kts 297°
2026-05-05 14:04 41.46955 -74.50226 25576 ft 404 kts 297°
2026-05-05 14:04 41.48366 -74.53478 25914 ft 406 kts 297°
2026-05-05 14:04 41.49786 -74.56756 26241 ft 409 kts 297°
2026-05-05 14:05 41.51212 -74.60053 26567 ft 412 kts 297°
2026-05-05 14:05 41.52645 -74.63379 26907 ft 415 kts 297°
2026-05-05 14:05 41.53615 -74.65639 27128 ft 416 kts 297°
2026-05-05 14:05 41.55529 -74.70101 27564 ft 420 kts 297°
2026-05-05 14:06 41.56986 -74.73500 27896 ft 423 kts 297°
2026-05-05 14:06 41.57975 -74.75805 28124 ft 425 kts 297°
2026-05-05 14:06 41.59449 -74.79240 28454 ft 427 kts 297°
2026-05-05 14:06 41.60932 -74.82695 28778 ft 430 kts 297°
2026-05-05 14:07 41.62405 -74.86132 29093 ft 433 kts 297°
2026-05-05 14:07 41.63906 -74.89637 29412 ft 436 kts 297°
2026-05-05 14:07 41.65418 -74.93166 29728 ft 438 kts 297°
2026-05-05 14:07 41.66930 -74.96704 30126 ft 438 kts 297°
2026-05-05 14:08 41.68436 -75.00241 30534 ft 436 kts 297°
2026-05-05 14:08 41.69928 -75.03760 30986 ft 434 kts 297°
2026-05-05 14:08 41.71415 -75.07274 31465 ft 431 kts 297°
2026-05-05 14:08 41.72887 -75.10747 32027 ft 427 kts 297°
2026-05-05 14:09 41.74348 -75.14183 32533 ft 424 kts 297°
2026-05-05 14:09 41.75803 -75.17606 33007 ft 421 kts 297°
2026-05-05 14:09 41.77244 -75.21011 33477 ft 419 kts 297°
2026-05-05 14:09 41.78674 -75.24406 33905 ft 417 kts 297°
2026-05-05 14:10 41.80095 -75.27788 34283 ft 416 kts 297°
2026-05-05 14:10 41.81515 -75.31160 34643 ft 414 kts 297°
2026-05-05 14:10 41.82929 -75.34520 34982 ft 413 kts 297°
2026-05-05 14:10 41.84338 -75.37876 35301 ft 412 kts 296°
2026-05-05 14:11 41.85723 -75.41179 35611 ft 411 kts 296°
2026-05-05 14:11 41.87126 -75.44527 35831 ft 410 kts 296°
2026-05-05 14:11 41.89941 -75.51240 35860 ft 415 kts 296°
2026-05-05 14:12 41.92766 -75.58007 35859 ft 416 kts 296°
2026-05-05 14:12 41.95583 -75.64780 35857 ft 415 kts 296°
2026-05-05 14:13 41.98403 -75.71562 35849 ft 416 kts 296°
2026-05-05 14:13 42.01221 -75.78352 35850 ft 416 kts 296°
2026-05-05 14:14 42.04031 -75.85146 35867 ft 414 kts 296°
2026-05-05 14:14 42.06824 -75.91916 35867 ft 413 kts 296°
2026-05-05 14:15 42.09604 -75.98672 35862 ft 412 kts 296°
2026-05-05 14:15 42.12360 -76.05376 35859 ft 411 kts 296°
2026-05-05 14:16 42.15009 -76.12184 35849 ft 408 kts 289°
2026-05-05 14:16 42.16217 -76.19579 35859 ft 403 kts 274°
2026-05-05 14:17 42.16781 -76.27090 35845 ft 402 kts 275°
2026-05-05 14:17 42.17359 -76.34573 35842 ft 401 kts 275°
2026-05-05 14:18 42.17936 -76.42054 35834 ft 401 kts 275°
2026-05-05 14:18 42.18506 -76.49530 35832 ft 401 kts 275°
2026-05-05 14:19 42.19063 -76.57002 35830 ft 400 kts 274°
2026-05-05 14:19 42.19618 -76.64460 35828 ft 399 kts 274°
2026-05-05 14:20 42.20159 -76.71915 35827 ft 399 kts 274°
2026-05-05 14:20 42.20695 -76.79356 35817 ft 399 kts 274°
2026-05-05 14:21 42.21234 -76.86805 35825 ft 399 kts 274°
2026-05-05 14:21 42.21766 -76.94246 35818 ft 398 kts 274°
2026-05-05 14:22 42.22292 -77.01692 35812 ft 398 kts 274°
2026-05-05 14:22 42.22812 -77.09134 35810 ft 398 kts 274°
2026-05-05 14:23 42.23331 -77.16569 35810 ft 398 kts 274°
2026-05-05 14:23 42.23844 -77.23967 35815 ft 398 kts 273°
2026-05-05 14:24 42.24351 -77.31412 35811 ft 398 kts 273°
2026-05-05 14:24 42.24847 -77.38837 35811 ft 397 kts 273°
2026-05-05 14:25 42.25340 -77.46257 35809 ft 397 kts 273°
2026-05-05 14:25 42.25998 -77.53644 35804 ft 398 kts 281°
2026-05-05 14:26 42.27323 -77.60915 35814 ft 399 kts 281°
2026-05-05 14:26 42.28635 -77.68175 35805 ft 397 kts 281°
2026-05-05 14:27 42.29937 -77.75423 35803 ft 397 kts 281°
2026-05-05 14:27 42.31233 -77.82656 35807 ft 396 kts 281°
2026-05-05 14:28 42.32525 -77.89885 35805 ft 395 kts 281°
2026-05-05 14:28 42.33812 -77.97103 35836 ft 395 kts 281°
2026-05-05 14:29 42.35085 -78.04315 35826 ft 393 kts 280°
2026-05-05 14:29 42.36353 -78.11502 35822 ft 392 kts 280°
2026-05-05 14:30 42.37616 -78.18681 35828 ft 392 kts 280°
2026-05-05 14:30 42.38867 -78.25851 35824 ft 391 kts 280°
2026-05-05 14:31 42.40115 -78.33013 35822 ft 391 kts 280°
2026-05-05 14:31 42.41355 -78.40188 35821 ft 391 kts 280°
2026-05-05 14:32 42.42595 -78.47352 35815 ft 391 kts 280°
2026-05-05 14:32 42.43827 -78.54512 35806 ft 391 kts 280°
2026-05-05 14:33 42.45054 -78.61638 35807 ft 391 kts 280°
2026-05-05 14:33 42.46276 -78.68803 35832 ft 390 kts 280°
2026-05-05 14:34 42.47090 -78.75994 35790 ft 384 kts 270°
2026-05-05 14:34 42.47324 -78.83212 35767 ft 384 kts 271°
2026-05-05 14:35 42.47568 -78.90439 35756 ft 384 kts 271°
2026-05-05 14:35 42.47809 -78.97678 35757 ft 384 kts 271°
2026-05-05 14:36 42.48040 -79.04913 35761 ft 384 kts 270°
2026-05-05 14:36 42.48263 -79.12162 35779 ft 384 kts 271°
2026-05-05 14:37 42.48480 -79.19384 35778 ft 383 kts 271°
2026-05-05 14:37 42.48699 -79.26595 35775 ft 383 kts 271°
2026-05-05 14:38 42.48913 -79.33762 35773 ft 383 kts 271°
2026-05-05 14:38 42.49123 -79.40978 35772 ft 383 kts 271°
2026-05-05 14:39 42.49324 -79.48190 35784 ft 383 kts 270°
2026-05-05 14:39 42.49520 -79.55405 35778 ft 383 kts 270°
2026-05-05 14:40 42.49712 -79.62607 35775 ft 382 kts 270°
2026-05-05 14:40 42.49898 -79.69806 35772 ft 382 kts 270°
2026-05-05 14:41 42.50081 -79.76946 35770 ft 382 kts 270°
2026-05-05 14:41 42.50263 -79.84148 35778 ft 382 kts 270°
2026-05-05 14:42 42.50441 -79.91345 35775 ft 382 kts 270°
2026-05-05 14:42 42.50611 -79.98536 35773 ft 381 kts 270°
2026-05-05 14:43 42.50776 -80.05720 35769 ft 381 kts 270°
2026-05-05 14:43 42.50939 -80.12898 35767 ft 381 kts 270°
2026-05-05 14:44 42.51100 -80.20070 35785 ft 380 kts 270°
2026-05-05 14:44 42.51252 -80.27186 35781 ft 379 kts 270°
2026-05-05 14:45 42.51400 -80.34321 35779 ft 378 kts 270°
2026-05-05 14:45 42.51543 -80.41448 35776 ft 378 kts 270°
2026-05-05 14:46 42.51682 -80.48564 35780 ft 377 kts 270°
2026-05-05 14:46 42.51813 -80.55676 35800 ft 377 kts 270°
2026-05-05 14:47 42.51936 -80.62770 35795 ft 376 kts 270°
2026-05-05 14:47 42.52024 -80.69834 35792 ft 374 kts 269°
2026-05-05 14:48 42.52083 -80.76879 35775 ft 375 kts 269°
2026-05-05 14:48 42.52103 -80.79242 35608 ft 380 kts 269°
2026-05-05 14:48 42.52135 -80.82834 35140 ft 381 kts 269°
2026-05-05 14:49 42.52168 -80.86422 34499 ft 381 kts 269°
2026-05-05 14:49 42.52201 -80.90010 33987 ft 379 kts 269°
2026-05-05 14:49 42.52234 -80.93572 33570 ft 381 kts 269°
2026-05-05 14:49 42.52265 -80.97256 33107 ft 400 kts 269°
2026-05-05 14:50 42.52293 -81.01099 32932 ft 410 kts 269°
2026-05-05 14:50 42.52322 -81.04918 33782 ft 400 kts 269°
2026-05-05 14:50 42.52351 -81.08649 34513 ft 389 kts 269°
2026-05-05 14:50 42.52380 -81.12273 35238 ft 380 kts 269°
2026-05-05 14:51 42.52410 -81.15802 35962 ft 370 kts 269°
2026-05-05 14:51 42.52442 -81.19235 36692 ft 359 kts 269°
2026-05-05 14:51 42.52474 -81.22571 37432 ft 348 kts 269°
2026-05-05 14:51 42.52507 -81.25793 38176 ft 336 kts 269°
2026-05-05 14:52 42.52542 -81.28905 38798 ft 324 kts 269°
2026-05-05 14:52 42.52577 -81.31896 39336 ft 311 kts 269°
2026-05-05 14:52 42.52614 -81.34761 39832 ft 297 kts 270°
2026-05-05 14:52 42.52651 -81.37508 40209 ft 288 kts 270°
2026-05-05 14:53 42.52688 -81.40231 40131 ft 293 kts 270°
2026-05-05 14:53 42.52726 -81.43051 39796 ft 305 kts 270°
2026-05-05 14:53 42.52802 -81.48797 40144 ft 296 kts 270°
2026-05-05 14:54 42.52840 -81.51562 40359 ft 292 kts 270°
2026-05-05 14:54 42.52879 -81.54344 40164 ft 300 kts 270°
2026-05-05 14:54 42.52918 -81.57221 39943 ft 309 kts 270°
2026-05-05 14:54 42.52958 -81.60128 40076 ft 306 kts 270°
2026-05-05 14:55 42.52998 -81.62966 40402 ft 297 kts 270°
2026-05-05 14:55 42.53038 -81.65760 40476 ft 297 kts 270°
2026-05-05 14:55 42.53078 -81.68606 40227 ft 307 kts 270°
2026-05-05 14:55 42.53119 -81.71533 40104 ft 312 kts 270°
2026-05-05 14:56 42.53159 -81.74410 40323 ft 306 kts 270°
2026-05-05 14:56 42.53200 -81.77259 40583 ft 300 kts 270°
2026-05-05 14:56 42.53284 -81.82994 40323 ft 311 kts 270°
2026-05-05 14:57 42.53369 -81.88858 40569 ft 306 kts 270°
2026-05-05 14:57 42.53411 -81.91721 40717 ft 303 kts 270°
2026-05-05 14:57 42.53454 -81.94595 40594 ft 309 kts 270°
2026-05-05 14:58 42.53498 -81.97537 40443 ft 315 kts 270°
2026-05-05 14:58 42.53541 -82.00508 40544 ft 312 kts 270°
2026-05-05 14:58 42.53585 -82.03420 40803 ft 306 kts 270°
2026-05-05 14:58 42.53629 -82.06287 40822 ft 302 kts 270°